COSMOS 2251 DEB, 35975

Orbit data source: Space-Track

COSMOS 2251 DEB, 35975 is space debris in LEO originally from a launch on Wed, 16 Jun 1993 UTC launched from the Plesetsk Missile And Space Complex (PKMTR). The debris from Iridium 33, an American commercial communications satellite, has been tracked extensively since its accidental collision with the defunct Russian satellite Cosmos 2251 in 2009. This event, occurring at high speed in low Earth orbit (LEO), generated thousands of pieces of space debris, significantly increasing the risk of further collisions. The Iridium 33 debris cloud has impacted space traffic management and orbital debris mitigation strategies, making it a subject of ongoing study in space situational awareness.

Loading next visibility...
Identifier
35975, 1993-036AVR
Orbit
LEO
Country
Flag of CISCIS
Related business
Manufacturer
Unknown
Mission
Spacecraft
Bus & Motor
Unknown
Mass
Unknown
Launch date (UTC)
1993-06-16 (33 years ago)
Launch vehicle
Unknown
Launch site
Plesetsk Missile And Space Complex (PKMTR)
Object type
Payload
Rocket body
Debris
Shape & HBR
Unknown shape, 0.1 m
Radar Cross Section
Small (<0.1 m²)

Expand to show TLE details & history
Last TLE update: 3 months ago

TLE from 3 months ago
0 COSMOS 2251 DEB
1 35975U 93036AVR 25264.33515528  .00003424  00000-0  13567-2 0  9998
2 35975  74.0491 118.4482 0114514 218.1944 141.1052 14.25701599629272
Epoch: 2025-09-21T08:02Z
TLE epoch observation values (Epoch: 2025-09-21T08:02:37.416Z)
Latitude
0.00008°
Longitude
-2.66285°
Altitude
873.142 km
Speed
7.383 km/s
True Right ascension
07h 53m 47s
True Declination
0° 00' 00"
Sunlit
Object was in daylight at epoch
Visualization orbit readout
Latitude
Unknown
Longitude
Unknown
Altitude
Unknown
Speed
Unknown
Apparent Right ascension
Unknown
Apparent Declination
Unknown
Sunlit
N/A
Visualization observer readout
Local Sidereal Time
07:49:51
Azimuth
Unknown
Elevation
Unknown
Doppler factor
Unknown
Orbital elements
Apogee altitude
886.011 km
Perigee altitude
721.526 km
Semi-major axis
7,181.906 km
Eccentricity
0.01145
Inclination
74.0491°
RAAN
118.4482°
Arg. of periapsis
218.1944°
True anomaly
141.92003°
Mean anomaly
141.1052°
Eccentric anomaly
141.51352°
Mean motion
3.56602 °/min
Orbital period
100.95 mins
BSTAR
0.0013567
Loading maneuver chart data...
Computing Atmospheric mass density...

Documentation

Showing up to 5 results
|